Weather History for PAHN - October, 2012

Change the Weather History Date:

Friday, October 26, 2012

  Actual Average (PAJN) Record (PAJN)
Temperature  
Mean Temperature 26 °F 39 °F  
Max Temperature 32 °F 44 °F 53 °F (2003)
Min Temperature 21 °F 34 °F 12 °F (1971)
Degree Days  
Heating Degree Days 38 26  
Month to date heating degree days 565  
Since 1 July heating degree days 1549  
Cooling Degree Days 0 0  
Month to date cooling degree days 0  
Year to date cooling degree days 2  
Moisture  
Dew Point 10 °F    
Average Humidity 50    
Maximum Humidity 63    
Minimum Humidity 40    
Precipitation  
Precipitation 0.00 in 0.24 in 1.61 in (2007)
Month to date precipitation 7.43  
Year to date precipitation 49.24  
Snow  
Snow 0.00 in 0.00 in 1.50 in (2008)
Month to date snowfall 0.4  
Since 1 July snowfall 0.4  
Since 1 September snowfall 0.4  
Snow Depth -    
Sea Level Pressure  
Sea Level Pressure 30.40 in    
Wind  
Wind Speed 14 mph (NW)    
Max Wind Speed 17 mph    
Max Gust Speed 22 mph    
Visibility 10 miles    
Events      
T = Trace of Precipitation, MM = Missing Value Source: NWS Daily Summary

Daily Weather History Graph

Daily Weather History Graph

Search for Another Location

Airport or City:

Trip Planner

Search our weather history database for the weather conditions in past years. The results will help you decide how hot, cold, wet, or windy it might be!

Date:

Astronomy

Oct. 26, 2012 Rise Set
Actual Time 8:07 AM AKDT 5:22 PM AKDT
Civil Twilight 7:25 AM AKDT 6:05 PM AKDT
Nautical Twilight 6:37 AM AKDT 6:53 PM AKDT
Astronomical Twilight 5:50 AM AKDT 7:40 PM AKDT
Moon 4:09 PM AKDT (10/26) 4:38 AM AKDT (10/26)
Length of Visible Light 10h 40m
Length of Day
9h 14m
Waxing Gibbous, 92% of the Moon is Illuminated
Oct 26
Waxing Gibbous
Oct 29
Full
Nov 6
Last Quarter
Nov 13
New
Nov 20
First Quarter

Hourly Weather History & Observations

Time (AKDT) Temp. Windchill Dew Point Humidity Pressure Visibility Wind Dir Wind Speed Gust Speed Precip Events Conditions
12:54 AM 25.0 °F 13.1 °F 12.0 °F 58% 30.51 in 10.0 mi NW 13.8 mph - N/A   Clear
1:54 AM 24.1 °F 11.5 °F 10.9 °F 57% 30.51 in 10.0 mi NW 15.0 mph 21.9 mph N/A   Clear
2:54 AM 25.0 °F 13.1 °F 10.9 °F 55% 30.49 in 10.0 mi NW 13.8 mph 19.6 mph N/A   Clear
3:54 AM 23.0 °F 10.6 °F 10.9 °F 60% 30.48 in 10.0 mi WNW 13.8 mph - N/A   Clear
4:54 AM 24.1 °F 12.0 °F 10.0 °F 55% 30.47 in 10.0 mi NW 13.8 mph - N/A   Clear
5:54 AM 21.9 °F 10.4 °F 10.9 °F 63% 30.47 in 10.0 mi NW 11.5 mph - N/A   Clear
6:54 AM 21.9 °F 10.4 °F 10.0 °F 60% 30.46 in 10.0 mi WNW 11.5 mph 18.4 mph N/A   Clear
7:54 AM 24.1 °F 13.1 °F 9.0 °F 53% 30.46 in 10.0 mi NNW 11.5 mph 19.6 mph N/A   Clear
8:54 AM 23.0 °F 10.1 °F 9.0 °F 55% 30.45 in 10.0 mi WNW 15.0 mph 20.7 mph N/A   Clear
9:54 AM 25.0 °F 13.1 °F 9.0 °F 51% 30.45 in 10.0 mi WNW 13.8 mph - N/A   Clear
10:54 AM 26.1 °F 14.0 °F 10.0 °F 51% 30.43 in 10.0 mi WNW 15.0 mph 21.9 mph N/A   Clear
11:54 AM 28.0 °F 16.5 °F 10.0 °F 47% 30.43 in 8.0 mi NW 15.0 mph 21.9 mph N/A   Clear
12:26 PM 28.4 °F 16.2 °F 10.4 °F 47% 30.40 in 5.0 mi WNW 17.3 mph 21.9 mph N/A   Haze
12:54 PM 30.0 °F 19.1 °F 10.0 °F 43% 30.41 in 7.0 mi WNW 15.0 mph 19.6 mph N/A   Clear
1:54 PM 32.0 °F 22.5 °F 10.0 °F 40% 30.38 in 8.0 mi WNW 12.7 mph - N/A   Clear
2:54 PM 30.9 °F 19.4 °F 10.0 °F 42% 30.36 in 10.0 mi WNW 17.3 mph - N/A   Clear
3:54 PM 30.9 °F 21.7 °F 10.0 °F 42% 30.36 in 10.0 mi WNW 11.5 mph 19.6 mph N/A   Clear
4:54 PM 30.0 °F 20.0 °F 9.0 °F 41% 30.34 in 10.0 mi WNW 12.7 mph - N/A   Clear
5:54 PM 28.9 °F 18.6 °F 9.0 °F 43% 30.32 in 10.0 mi NW 12.7 mph 19.6 mph N/A   Clear
6:54 PM 28.9 °F 20.4 °F 9.0 °F 43% 30.31 in 10.0 mi NW 9.2 mph 18.4 mph N/A   Clear
7:54 PM 28.9 °F 18.6 °F 10.0 °F 45% 30.30 in 10.0 mi NW 12.7 mph - N/A   Clear
8:54 PM 28.0 °F 18.1 °F 10.0 °F 47% 30.29 in 10.0 mi NW 11.5 mph 18.4 mph N/A   Clear
9:54 PM 27.0 °F 16.7 °F 10.0 °F 49% 30.28 in 10.0 mi NW 11.5 mph - N/A   Clear
10:54 PM 27.0 °F 16.7 °F 10.0 °F 49% 30.28 in 10.0 mi NW 11.5 mph - N/A   Clear
11:54 PM 26.1 °F 15.6 °F 10.0 °F 51% 30.27 in 10.0 mi NW 11.5 mph - N/A   Clear